SCP
0 0 0 0 0 0 0 0 0 0 0 0 0 0 0 0 0 0 0 0 0 0 0 0 0 0 0 0 0 0 0 0 0 0 0 0 0 0 0 0 0 0 0
0 0 0 0 0 0 0 0 0 0 0 0 0 0 0 0 0 0 0 0 0 0 0 0 0 0 0 0 0 0 0 0 0 0 0 0 0 0 0 0 0 0 0
0 0 0 0 0 0 0 0 0 0 0 0 0 0 0 0 0 0 0 0 0 0 0 0 0 0 0 0 0 0 0 0 0 0 0 0 0 0 0 0 0 0 0
0 0 0 0 0 0 0 0 0 0 0 0 0 0 0 0 0 0 0 0 0 0 0 0 0 0 0 0 0 0 0 0 0 0 0 0 0 0 0 0 0 0 0
0 0 0 0 0 0 0 0 0 0 0 0 0 0 0 0 0 0 0 0 0 0 0 0 0 0 0 0 0 0 0 0 0 0 0 0 0 0 0 0 0 0 0
0 0 0 0 0 0 0 0 0 0 0 0 0 0 0 0 0 0 0 0 0 0 0 0 0 0 0 0 0 0 0 0 0 0 0 0 0 0 0 0 0 0 0
0 0 0 0 0 0 0 0 0 0 0 0 0 0 0 0 0 0 0 0 0 0 0 0 0 0 0 0 0 0 0 0 0 0 0 0 0 0 0 0 0 0 0
0 0 0 0 0 0 0 0 0 0 0 0 0 0 0 0 0 0 0 0 0 0 0 0 0 0 0 0 0 0 0 0 0 0 0 0 0 0 0 0 0 0 0
0 0 0 0 0 0 0 0 0 0 0 0 0 0 0 0 0 0 0 0 0 0 0 0 0 0 0 0 0 0 0 0 0 0 0 0 0 0 0 0 0 0 0
0 0 0 0 0 0 0 0 0 0 0 0 0 0 0 0 0 0 0 0 0 0 0 0 0 0 0 0 0 0 0 0 0 0 0 0 0 0 0 0 0 0 0
0 0 0 0 0 0 0 0 0 0 0 0 0 0 0 0 0 0 0 0 0 0 0 0 0 0 0 0 0 0 0 0 0 0 0 0 0 0 0 0 0 0 0
0 0 0 0 0 0 0 0 0 0 0 0 0 0 0 0 0 0 0 0 0 0 0 0 0 0 0 0 0 0 0 0 0 0 0 0 0 0 0 0 0 0 0
0 0 0 0 0 0 0 0 0 0 0 0 0 0 0 0 0 0 0 0 0 0 0 0 0 0 0 0 0 0 0 0 0 0 0 0 0 0 0 0 0 0 0
0 0 0 0 0 0 0 0 0 0 0 0 0 0 0 0 0 0 0 0 0 0 0 0 0 0 0 0 0 0 0 0 0 0 0 0 0 0 0 0 0 0 0
0 0 0 0 0 0 0 0 0 0 0 0 0 0 0 0 0 0 0 0 0 0 0 0 0 0 0 0 0 0 0 0 0 0 0 0 0 0 0 0 0 0 0
0 0 0 0 0 0 0 0 0 0 0 0 0 0 0 0 0 0 0 0 0 0 0 0 0 0 0 0 0 0 0 0 0 0 0 0 0 0 0 0 0 0 0
0 0 0 0 0 0 0 0 0 0 0 0 0 0 0 0 0 0 0 0 0 0 0 0 0 0 0 0 0 0 0 0 0 0 0 0 0 0 0 0 0 0 0
0 0 0 0 0 0 0 0 0 0 0 0 0 0 0 0 0 0 0 0 0 0 0 0 0 0 0 0 0 0 0 0 0 0 0 0 0 0 0 0 0 0 0
0 0 0 0 0 0 0 0 0 0 0 0 0 0 0 0 0 0 0 0 0 0 0 0 0 0 0 0 0 0 0 0 0 0 0 0 0 0 0 0 0 0 0
0 0 0 0 0 0 0 0 0 0 0 0 0 0 0 0 0 0 0 0 0 0 0 0 0 0 0 0 0 0 0 0 0 0 0 0 0 0 0 0 0 0 0
0 0 0 0 0 0 0 0 0 0 0 0 0 0 0 0 0 0 0 0 0 0 0 0 0 0 0 0 0 0 0 0 0 0 0 0 0 0 0 0 0 0 0
0 0 0 0 0 0 0 0 0 0 0 0 0 0 0 0 0 0 0 0 0 0 0 0 0 0 0 0 0 0 0 0 0 0 0 0 0 0 0 0 0 0 0
0 0 0 0 0 0 0 0 0 0 0 0 0 0 0 0 0 0 0 0 0 0 0 0 0 0 0 0 0 0 0 0 0 0 0 0 0 0 0 0 0 0 0
0 0 0 0 0 0 0 0 0 0 0 0 0 0 0 0 0 0 0 0 0 0 0 0 0 0 0 0 0 0 0 0 0 0 0 0 0 0 0 0 0 0 0
0 0 0 0 0 0 0 0 0 0 0 0 0 0 0 0 0 0 0 0 0 0 0 0 0 0 0 0 0 0 0 0 0 0 0 0 0 0 0 0 0 0 0
0 0 0 0 0 0 0 0 0 0 0 0 0 0 0 0 0 0 0 0 0 0 0 0 0 0 0 0 0 0 0 0 0 0 0 0 0 0 0 0 0 0 0
Wind_Speed_500mb
34 40 44 44 43 43 45 48 49 50 53 55 55 55 54 52 50 49 55 48 51 53 51 50 48 46 46 43 41 39 38 37 37 37 37 34 33 32 31 29 28 27 27
18 24 29 32 35 37 38 41 42 43 44 44 45 46 45 44 46 49 52 53 52 51 55 53 49 46 44 42 38 35 34 32 33 34 33 32 31 30 28 24 23 24 25
17 21 25 27 29 31 33 35 37 38 39 41 43 44 42 45 49 53 52 54 54 55 55 53 50 46 43 40 37 34 31 29 29 29 29 29 28 25 24 22 20 23 26
22 23 25 26 27 30 33 36 39 41 43 45 46 47 48 51 54 56 55 58 58 57 53 51 49 47 44 40 37 35 31 29 27 27 26 26 26 25 25 22 20 21 26
32 32 33 36 38 40 41 42 44 47 49 50 53 54 57 60 60 60 60 60 58 56 54 53 51 48 44 41 37 32 32 30 27 26 26 26 25 23 23 25 25 23 28
43 44 45 43 44 48 51 52 52 53 56 59 60 61 62 63 62 62 63 61 59 58 56 54 51 49 46 44 40 38 34 28 27 26 25 25 24 23 22 23 25 27 27
54 53 56 59 60 59 59 61 63 63 64 66 67 67 66 65 64 65 65 60 58 59 58 56 54 53 49 44 41 36 32 30 30 28 27 26 23 21 21 22 22 24 29
48 54 62 66 71 72 73 72 70 70 70 70 70 69 69 69 69 69 64 62 63 63 61 59 55 52 48 42 39 35 33 31 30 29 27 26 23 22 22 22 23 23 27
55 51 48 57 67 73 80 82 80 76 75 75 73 73 72 73 73 71 68 69 68 68 66 64 61 56 51 44 42 37 32 31 31 31 30 29 28 25 23 21 22 25 26
50 51 56 57 59 68 73 80 82 81 80 78 77 76 75 75 75 74 73 74 73 71 68 65 62 57 48 45 42 38 34 34 35 33 29 27 26 22 19 18 20 23 27
58 58 55 54 58 63 68 74 80 82 83 81 81 79 78 77 77 76 74 74 75 73 71 68 64 59 52 48 42 36 39 41 37 33 30 26 22 21 19 19 20 23 23
60 60 59 58 56 59 63 68 75 79 84 85 85 84 82 80 79 77 73 73 74 72 68 64 60 58 55 48 44 39 44 42 39 35 29 26 23 21 22 22 21 22 22
63 60 60 58 54 55 59 63 69 75 85 91 92 90 89 86 81 79 73 68 73 69 66 63 59 57 50 52 41 50 46 43 39 34 31 27 24 24 25 23 20 19 20
66 64 58 56 56 55 53 58 64 72 83 92 96 95 95 90 87 86 79 71 68 74 67 64 61 58 57 45 49 51 48 44 40 36 31 28 26 26 25 22 21 19 17
64 60 59 56 54 55 55 58 62 68 76 86 94 93 97 97 98 87 83 79 77 73 72 68 68 66 60 57 57 52 49 46 40 35 32 30 27 25 24 22 21 20 18
63 60 55 53 53 52 53 56 58 62 72 75 82 87 91 89 88 88 85 75 72 68 70 75 73 66 66 60 61 56 51 44 40 37 34 30 27 25 25 22 19 18 18
62 59 56 53 50 48 49 52 58 57 66 65 72 77 81 76 77 78 82 78 67 68 70 71 70 69 60 62 56 52 48 43 40 38 34 31 29 28 23 21 19 19 22
58 57 55 52 50 49 48 49 52 55 58 61 56 57 60 66 63 60 58 60 62 68 74 76 69 58 57 54 55 55 51 47 42 38 36 34 32 28 23 20 21 22 25
60 59 54 53 52 49 47 47 50 54 56 61 63 63 60 59 64 68 69 74 77 82 77 72 65 62 59 61 58 53 50 46 42 41 39 37 33 29 25 22 23 24 28
59 58 57 55 52 51 49 48 48 52 58 61 65 65 65 53 52 62 68 81 80 82 76 68 65 63 61 56 53 52 51 48 46 44 41 38 35 31 27 25 26 28 32
63 62 57 56 55 52 51 52 53 54 58 64 65 65 66 65 63 69 80 87 87 80 73 64 55 57 56 54 54 52 51 48 46 43 41 39 37 32 29 28 29 31 35
60 62 60 59 57 56 55 54 56 58 59 62 66 65 62 68 70 79 87 89 81 74 67 60 58 58 55 53 50 51 51 49 46 42 42 41 37 32 32 33 33 35 38
59 60 60 59 57 56 56 56 57 60 61 63 64 63 65 70 73 75 79 78 76 69 61 59 60 57 55 53 52 52 51 47 41 43 43 39 38 37 36 37 38 37 39
58 56 56 56 56 55 55 55 56 57 59 61 62 62 64 68 79 73 71 71 69 66 65 58 57 56 54 54 53 52 48 46 45 44 42 41 40 39 40 41 40 38 39
56 54 55 55 54 54 54 54 56 57 58 59 60 60 61 64 70 70 65 62 63 63 54 54 57 55 53 52 51 49 47 48 47 45 45 42 41 42 44 44 41 40 40
55 54 54 53 54 54 54 54 55 55 57 57 57 56 56 58 60 60 59 59 58 53 54 55 56 53 52 52 51 51 49 48 47 45 44 44 44 44 46 44 42 41 41
Wind_Direction_500mb
235 235 236 238 239 239 240 241 244 248 250 250 248 247 246 244 239 238 236 239 242 243 249 249 249 256 244 245 240 236 231 229 225 239 244 250 260 269 275 280 285 292 300
233 231 231 234 239 242 245 248 247 245 242 240 240 243 244 238 233 237 240 239 243 246 245 246 248 241 237 235 231 230 231 231 230 236 239 246 253 259 263 271 284 293 303
268 260 259 255 251 246 246 246 245 243 244 243 241 239 237 232 232 236 239 240 241 241 243 244 240 234 231 229 229 231 231 230 230 233 237 242 249 256 269 279 291 301 307
293 289 279 269 264 261 256 251 248 246 244 243 241 238 238 238 239 240 241 241 242 242 240 236 233 230 228 228 228 227 229 231 233 236 241 246 253 262 273 285 297 307 309
306 301 293 283 273 263 256 251 249 247 244 241 240 239 239 240 241 241 243 243 242 238 234 231 227 226 227 228 227 230 234 233 232 235 240 249 260 272 285 297 306 315 315
286 284 284 282 283 273 267 261 255 251 249 245 242 241 241 243 244 243 243 242 239 235 230 226 224 226 226 227 229 232 231 230 236 240 246 253 261 272 284 296 307 319 332
278 271 270 273 273 267 261 257 254 251 249 247 246 244 243 242 242 242 240 236 232 228 225 224 223 222 224 226 229 231 231 233 238 245 249 253 259 268 280 293 308 320 322
287 282 274 270 269 264 259 255 253 253 252 250 249 248 246 243 242 239 233 228 224 224 224 224 224 224 222 222 224 223 224 229 236 243 248 255 262 270 279 289 303 314 320
294 287 282 275 270 268 265 262 259 256 254 252 249 246 244 243 240 235 228 225 224 224 223 223 224 223 223 224 221 221 224 235 242 247 250 255 261 267 276 293 309 315 320
298 291 280 272 269 267 265 263 261 258 257 253 250 246 242 240 237 235 229 226 224 223 222 223 224 225 224 223 220 220 228 242 241 241 242 249 258 266 277 295 304 308 315
300 296 288 279 274 270 267 262 258 256 255 251 248 244 241 237 235 234 232 230 227 226 224 224 223 224 218 219 217 223 233 235 235 233 236 241 249 263 279 290 296 298 308
303 300 295 290 281 272 267 265 260 254 250 248 246 242 238 235 233 234 234 230 228 227 227 225 225 226 220 215 216 224 232 229 228 228 230 235 243 257 270 279 286 294 305
305 302 299 293 284 278 273 266 261 253 248 244 242 239 237 233 231 231 232 230 226 225 227 227 223 222 216 213 219 230 227 224 224 225 227 232 240 252 261 267 275 285 298
304 304 301 296 290 282 275 268 263 257 250 245 242 238 236 233 231 229 227 226 226 225 222 221 220 220 219 213 224 226 221 220 220 221 225 231 240 246 255 262 270 275 281
301 301 300 296 292 285 277 271 266 262 257 253 251 247 243 238 235 234 233 228 226 226 218 215 215 213 215 221 223 218 218 218 218 223 226 233 239 246 251 258 267 281 293
300 300 297 295 291 286 281 276 269 264 259 255 254 251 252 249 246 238 232 228 226 224 224 218 217 214 225 222 221 219 219 219 221 225 229 234 238 243 249 257 269 284 298
299 298 295 292 288 285 281 277 275 267 260 258 250 252 252 249 250 244 237 233 224 232 221 217 223 225 219 220 220 222 223 222 225 228 231 233 236 239 244 256 272 286 299
297 296 294 292 289 286 283 279 271 263 261 254 243 241 247 249 242 241 219 230 222 221 224 230 225 217 219 222 223 224 224 225 227 229 233 235 237 242 246 256 272 289 303
296 296 294 290 287 287 284 278 272 266 259 256 252 245 249 252 241 231 234 222 223 222 231 227 214 214 218 222 222 223 228 229 228 229 231 235 238 243 249 261 277 293 302
296 293 290 287 285 283 280 276 270 265 262 255 251 249 238 234 219 216 216 214 220 228 233 220 213 216 219 221 223 226 229 230 230 229 232 236 239 245 253 264 279 294 300
296 295 291 285 282 279 276 273 270 265 261 257 256 249 248 243 233 215 210 212 221 229 229 223 221 220 222 222 223 227 231 231 231 231 235 237 241 246 256 269 280 289 296
291 289 288 285 282 277 274 272 270 267 263 259 257 254 247 240 228 217 217 221 229 232 228 228 227 227 228 227 227 229 231 231 231 232 236 240 245 252 260 269 279 287 294
288 287 286 284 281 277 273 270 267 265 263 260 256 253 243 233 233 230 231 232 232 232 231 228 231 231 230 229 229 229 230 232 233 234 236 241 247 254 261 269 276 284 291
287 286 284 281 279 277 274 271 269 266 263 260 256 252 245 236 239 235 230 228 228 229 230 232 235 236 234 233 229 229 230 232 233 236 239 242 248 254 261 267 275 283 289
285 284 282 280 278 277 275 272 270 267 265 261 258 253 247 237 234 235 233 231 230 230 229 234 238 238 236 234 234 233 232 232 234 237 241 245 250 255 260 267 274 281 286
285 282 279 278 276 275 274 273 272 269 266 261 257 252 247 241 236 233 233 230 225 226 233 237 239 238 235 234 234 234 233 234 237 241 244 247 251 257 262 268 274 279 283
Wind_Speed_850mb
34 40 44 44 43 43 45 48 49 50 53 55 55 55 54 52 50 49 55 48 51 53 51 50 48 46 46 43 41 39 38 37 37 37 37 34 33 32 31 29 28 27 27
18 24 29 32 35 37 38 41 42 43 44 44 45 46 45 44 46 49 52 53 52 51 55 53 49 46 44 42 38 35 34 32 33 34 33 32 31 30 28 24 23 24 25
17 21 25 27 29 31 33 35 37 38 39 41 43 44 42 45 49 53 52 54 54 55 55 53 50 46 43 40 37 34 31 29 29 29 29 29 28 25 24 22 20 23 26
22 23 25 26 27 30 33 36 39 41 43 45 46 47 48 51 54 56 55 58 58 57 53 51 49 47 44 40 37 35 31 29 27 27 26 26 26 25 25 22 20 21 26
32 32 33 36 38 40 41 42 44 47 49 50 53 54 57 60 60 60 60 60 58 56 54 53 51 48 44 41 37 32 32 30 27 26 26 26 25 23 23 25 25 23 28
43 44 45 43 44 48 51 52 52 53 56 59 60 61 62 63 62 62 63 61 59 58 56 54 51 49 46 44 40 38 34 28 27 26 25 25 24 23 22 23 25 27 27
54 53 56 59 60 59 59 61 63 63 64 66 67 67 66 65 64 65 65 60 58 59 58 56 54 53 49 44 41 36 32 30 30 28 27 26 23 21 21 22 22 24 29
48 54 62 66 71 72 73 72 70 70 70 70 70 69 69 69 69 69 64 62 63 63 61 59 55 52 48 42 39 35 33 31 30 29 27 26 23 22 22 22 23 23 27
55 51 48 57 67 73 80 82 80 76 75 75 73 73 72 73 73 71 68 69 68 68 66 64 61 56 51 44 42 37 32 31 31 31 30 29 28 25 23 21 22 25 26
50 51 56 57 59 68 73 80 82 81 80 78 77 76 75 75 75 74 73 74 73 71 68 65 62 57 48 45 42 38 34 34 35 33 29 27 26 22 19 18 20 23 27
58 58 55 54 58 63 68 74 80 82 83 81 81 79 78 77 77 76 74 74 75 73 71 68 64 59 52 48 42 36 39 41 37 33 30 26 22 21 19 19 20 23 23
60 60 59 58 56 59 63 68 75 79 84 85 85 84 82 80 79 77 73 73 74 72 68 64 60 58 55 48 44 39 44 42 39 35 29 26 23 21 22 22 21 22 22
63 60 60 58 54 55 59 63 69 75 85 91 92 90 89 86 81 79 73 68 73 69 66 63 59 57 50 52 41 50 46 43 39 34 31 27 24 24 25 23 20 19 20
66 64 58 56 56 55 53 58 64 72 83 92 96 95 95 90 87 86 79 71 68 74 67 64 61 58 57 45 49 51 48 44 40 36 31 28 26 26 25 22 21 19 17
64 60 59 56 54 55 55 58 62 68 76 86 94 93 97 97 98 87 83 79 77 73 72 68 68 66 60 57 57 52 49 46 40 35 32 30 27 25 24 22 21 20 18
63 60 55 53 53 52 53 56 58 62 72 75 82 87 91 89 88 88 85 75 72 68 70 75 73 66 66 60 61 56 51 44 40 37 34 30 27 25 25 22 19 18 18
62 59 56 53 50 48 49 52 58 57 66 65 72 77 81 76 77 78 82 78 67 68 70 71 70 69 60 62 56 52 48 43 40 38 34 31 29 28 23 21 19 19 22
58 57 55 52 50 49 48 49 52 55 58 61 56 57 60 66 63 60 58 60 62 68 74 76 69 58 57 54 55 55 51 47 42 38 36 34 32 28 23 20 21 22 25
60 59 54 53 52 49 47 47 50 54 56 61 63 63 60 59 64 68 69 74 77 82 77 72 65 62 59 61 58 53 50 46 42 41 39 37 33 29 25 22 23 24 28
59 58 57 55 52 51 49 48 48 52 58 61 65 65 65 53 52 62 68 81 80 82 76 68 65 63 61 56 53 52 51 48 46 44 41 38 35 31 27 25 26 28 32
63 62 57 56 55 52 51 52 53 54 58 64 65 65 66 65 63 69 80 87 87 80 73 64 55 57 56 54 54 52 51 48 46 43 41 39 37 32 29 28 29 31 35
60 62 60 59 57 56 55 54 56 58 59 62 66 65 62 68 70 79 87 89 81 74 67 60 58 58 55 53 50 51 51 49 46 42 42 41 37 32 32 33 33 35 38
59 60 60 59 57 56 56 56 57 60 61 63 64 63 65 70 73 75 79 78 76 69 61 59 60 57 55 53 52 52 51 47 41 43 43 39 38 37 36 37 38 37 39
58 56 56 56 56 55 55 55 56 57 59 61 62 62 64 68 79 73 71 71 69 66 65 58 57 56 54 54 53 52 48 46 45 44 42 41 40 39 40 41 40 38 39
56 54 55 55 54 54 54 54 56 57 58 59 60 60 61 64 70 70 65 62 63 63 54 54 57 55 53 52 51 49 47 48 47 45 45 42 41 42 44 44 41 40 40
55 54 54 53 54 54 54 54 55 55 57 57 57 56 56 58 60 60 59 59 58 53 54 55 56 53 52 52 51 51 49 48 47 45 44 44 44 44 46 44 42 41 41
Wind_Direction_850mb
235 235 236 238 239 239 240 241 244 248 250 250 248 247 246 244 239 238 236 239 242 243 249 249 249 256 244 245 240 236 231 229 225 239 244 250 260 269 275 280 285 292 300
233 231 231 234 239 242 245 248 247 245 242 240 240 243 244 238 233 237 240 239 243 246 245 246 248 241 237 235 231 230 231 231 230 236 239 246 253 259 263 271 284 293 303
268 260 259 255 251 246 246 246 245 243 244 243 241 239 237 232 232 236 239 240 241 241 243 244 240 234 231 229 229 231 231 230 230 233 237 242 249 256 269 279 291 301 307
293 289 279 269 264 261 256 251 248 246 244 243 241 238 238 238 239 240 241 241 242 242 240 236 233 230 228 228 228 227 229 231 233 236 241 246 253 262 273 285 297 307 309
306 301 293 283 273 263 256 251 249 247 244 241 240 239 239 240 241 241 243 243 242 238 234 231 227 226 227 228 227 230 234 233 232 235 240 249 260 272 285 297 306 315 315
286 284 284 282 283 273 267 261 255 251 249 245 242 241 241 243 244 243 243 242 239 235 230 226 224 226 226 227 229 232 231 230 236 240 246 253 261 272 284 296 307 319 332
278 271 270 273 273 267 261 257 254 251 249 247 246 244 243 242 242 242 240 236 232 228 225 224 223 222 224 226 229 231 231 233 238 245 249 253 259 268 280 293 308 320 322
287 282 274 270 269 264 259 255 253 253 252 250 249 248 246 243 242 239 233 228 224 224 224 224 224 224 222 222 224 223 224 229 236 243 248 255 262 270 279 289 303 314 320
294 287 282 275 270 268 265 262 259 256 254 252 249 246 244 243 240 235 228 225 224 224 223 223 224 223 223 224 221 221 224 235 242 247 250 255 261 267 276 293 309 315 320
298 291 280 272 269 267 265 263 261 258 257 253 250 246 242 240 237 235 229 226 224 223 222 223 224 225 224 223 220 220 228 242 241 241 242 249 258 266 277 295 304 308 315
300 296 288 279 274 270 267 262 258 256 255 251 248 244 241 237 235 234 232 230 227 226 224 224 223 224 218 219 217 223 233 235 235 233 236 241 249 263 279 290 296 298 308
303 300 295 290 281 272 267 265 260 254 250 248 246 242 238 235 233 234 234 230 228 227 227 225 225 226 220 215 216 224 232 229 228 228 230 235 243 257 270 279 286 294 305
305 302 299 293 284 278 273 266 261 253 248 244 242 239 237 233 231 231 232 230 226 225 227 227 223 222 216 213 219 230 227 224 224 225 227 232 240 252 261 267 275 285 298
304 304 301 296 290 282 275 268 263 257 250 245 242 238 236 233 231 229 227 226 226 225 222 221 220 220 219 213 224 226 221 220 220 221 225 231 240 246 255 262 270 275 281
301 301 300 296 292 285 277 271 266 262 257 253 251 247 243 238 235 234 233 228 226 226 218 215 215 213 215 221 223 218 218 218 218 223 226 233 239 246 251 258 267 281 293
300 300 297 295 291 286 281 276 269 264 259 255 254 251 252 249 246 238 232 228 226 224 224 218 217 214 225 222 221 219 219 219 221 225 229 234 238 243 249 257 269 284 298
299 298 295 292 288 285 281 277 275 267 260 258 250 252 252 249 250 244 237 233 224 232 221 217 223 225 219 220 220 222 223 222 225 228 231 233 236 239 244 256 272 286 299
297 296 294 292 289 286 283 279 271 263 261 254 243 241 247 249 242 241 219 230 222 221 224 230 225 217 219 222 223 224 224 225 227 229 233 235 237 242 246 256 272 289 303
296 296 294 290 287 287 284 278 272 266 259 256 252 245 249 252 241 231 234 222 223 222 231 227 214 214 218 222 222 223 228 229 228 229 231 235 238 243 249 261 277 293 302
296 293 290 287 285 283 280 276 270 265 262 255 251 249 238 234 219 216 216 214 220 228 233 220 213 216 219 221 223 226 229 230 230 229 232 236 239 245 253 264 279 294 300
296 295 291 285 282 279 276 273 270 265 261 257 256 249 248 243 233 215 210 212 221 229 229 223 221 220 222 222 223 227 231 231 231 231 235 237 241 246 256 269 280 289 296
291 289 288 285 282 277 274 272 270 267 263 259 257 254 247 240 228 217 217 221 229 232 228 228 227 227 228 227 227 229 231 231 231 232 236 240 245 252 260 269 279 287 294
288 287 286 284 281 277 273 270 267 265 263 260 256 253 243 233 233 230 231 232 232 232 231 228 231 231 230 229 229 229 230 232 233 234 236 241 247 254 261 269 276 284 291
287 286 284 281 279 277 274 271 269 266 263 260 256 252 245 236 239 235 230 228 228 229 230 232 235 236 234 233 229 229 230 232 233 236 239 242 248 254 261 267 275 283 289
285 284 282 280 278 277 275 272 270 267 265 261 258 253 247 237 234 235 233 231 230 230 229 234 238 238 236 234 234 233 232 232 234 237 241 245 250 255 260 267 274 281 286
285 282 279 278 276 275 274 273 272 269 266 261 257 252 247 241 236 233 233 230 225 226 233 237 239 238 235 234 234 234 233 234 237 241 244 247 251 257 262 268 274 279 283